This is the latest recevied weather packets stored in our database for station/object K5IDL. If no packets are shown the sender has not sent any weather packets the latest 10 day(s).
| Time | Temp. | Humidity | Pressure | Rain* | Wind** | Luminosity | Snow |
|---|---|---|---|---|---|---|---|
| 1788666037 | 30° C | 67% | 1013.7 hPa | 0 mm | - | 0 W/m² | - |
| 1788665732 | 30° C | 68% | 1013.7 hPa | 0 mm | - | 0 W/m² | - |
| 1788665428 | 30° C | 68% | 1013.6 hPa | 0 mm | - | 0 W/m² | - |
| 1788665125 | 30° C | 67% | 1013.8 hPa | 0 mm | - | 0 W/m² | - |
| 1788664824 | 30.56° C | 67% | 1013.9 hPa | 0 mm | - | 0 W/m² | - |
| 1788664520 | 30.56° C | 67% | 1013.8 hPa | 0 mm | - | 0 W/m² | - |
| 1788664215 | 30.56° C | 66% | 1013.8 hPa | 0 mm | - | 0 W/m² | - |
| 1788663915 | 30.56° C | 66% | 1013.9 hPa | 0 mm | - | 0 W/m² | - |
| 1788663615 | 30.56° C | 66% | 1014 hPa | 0 mm | - | 0 W/m² | - |
| 1788663314 | 30.56° C | 66% | 1013.8 hPa | 0 mm | - | 0 W/m² | - |
| 1788663013 | 30.56° C | 65% | 1013.9 hPa | 0 mm | - | 0 W/m² | - |
| 1788662708 | 30.56° C | 65% | 1013.8 hPa | 0 mm | - | 0 W/m² | - |
| 1788662408 | 31.11° C | 64% | 1013.8 hPa | 0 mm | - | 0 W/m² | - |
| 1788662104 | 31.11° C | 64% | 1013.7 hPa | 0 mm | - | 0 W/m² | - |
| 1788661799 | 30.56° C | 64% | 1013.6 hPa | 0 mm | - | 0 W/m² | - |
| 1788661488 | 31.11° C | 63% | 1013.4 hPa | 0 mm | - | 0 W/m² | - |
| 1788661183 | 31.11° C | 63% | 1013.4 hPa | 0 mm | - | 0 W/m² | - |
| 1788660878 | 31.11° C | 62% | 1013.5 hPa | 0 mm | - | 0 W/m² | - |
| 1788660578 | 31.11° C | 62% | 1013.4 hPa | 0 mm | - | 0 W/m² | - |
| 1788660272 | 31.11° C | 61% | 1013.3 hPa | 0 mm | - | 0 W/m² | - |
| 1788659967 | 31.67° C | 61% | 1013.2 hPa | 0 mm | - | 0 W/m² | - |
| 1788659666 | 31.67° C | 60% | 1013.2 hPa | 0 mm | - | 0 W/m² | - |
| 1788659366 | 31.67° C | 60% | 1013.2 hPa | 0 mm | - | 0 W/m² | - |
| 1788659066 | 31.67° C | 60% | 1013.3 hPa | 0 mm | - | 0 W/m² | - |
| 1788658762 | 32.22° C | 59% | 1013 hPa | 0 mm | - | 0 W/m² | - |
* Rain latest hour (hover to see other rain measurements)
** Current wind speed in m/s (hover to see current wind gust speed)